|
These are pre-launch elements and suitable to
see what the orbit will do, until we hear from Norad.
SUNSAT
1 25635U 99008B 99054.89673604 -.00000032 00000-0 00000-0 0 28 2 25635 96.4728 9.7513 0152009 251.6262 106.9598 14.40792785 55 Regards
Deon ZR1DQ
|